• En España
  • Lista de países
  • Para 7 días
  • Temperatura del agua
  • Mapa Satelital
  • El tiempo en el mapa
  • Informadores
  • user-avatar
    Iniciar sesión

    Tiempo cada hora Chakhansur

    Hoy, 15 Noviembre, Jueves

    Tiempo Temperatura Precipitaciones Viento Presión Humedad
    00:00 +12°C° 0 mm 4 mps 722 mmHg 25%
    01:00 +12°C° 0 mm 4 mps 722 mmHg 26%
    02:00 +11°C° 0 mm 3 mps 722 mmHg 26%
    03:00 +11°C° 0 mm 3 mps 722 mmHg 26%
    04:00 +10°C° 0 mm 3 mps 722 mmHg 26%
    05:00 +10°C° 0 mm 2 mps 722 mmHg 26%
    06:00 +10°C° 0 mm 2 mps 723 mmHg 26%
    07:00 +10°C° 0 mm 2 mps 723 mmHg 26%
    08:00 +13°C° 0 mm 2 mps 723 mmHg 23%
    09:00 +15°C° 0 mm 2 mps 724 mmHg 21%
    10:00 +16°C° 0 mm 1 mps 724 mmHg 19%
    11:00 +19°C° 0 mm 1 mps 723 mmHg 17%
    12:00 +20°C° 0 mm 1 mps 723 mmHg 16%
    13:00 +22°C° 0 mm 1 mps 723 mmHg 15%
    14:00 +22°C° 0 mm 1 mps 723 mmHg 15%
    15:00 +22°C° 0 mm 1 mps 722 mmHg 15%
    16:00 +23°C° 0 mm 1 mps 722 mmHg 15%
    17:00 +22°C° 0 mm 1 mps 722 mmHg 16%
    18:00 +21°C° 0 mm 1 mps 722 mmHg 17%
    19:00 +19°C° 0 mm 2 mps 723 mmHg 18%
    20:00 +19°C° 0 mm 1 mps 723 mmHg 19%
    21:00 +19°C° 0 mm 1 mps 723 mmHg 20%
    22:00 +18°C° 0 mm 1 mps 723 mmHg 20%
    23:00 +18°C° 0 mm 1 mps 723 mmHg 21%

    Mañana, 16 Noviembre, Viernes

    Tiempo Temperatura Precipitaciones Viento Presión Humedad
    00:00 +18°C° 0 mm 1 mps 723 mmHg 22%
    01:00 +17°C° 0 mm 2 mps 723 mmHg 22%
    02:00 +16°C° 0 mm 2 mps 723 mmHg 23%
    03:00 +16°C° 0 mm 1 mps 722 mmHg 23%
    04:00 +16°C° 0 mm 1 mps 722 mmHg 24%
    05:00 +16°C° 0 mm 1 mps 722 mmHg 23%
    06:00 +16°C° 0 mm 1 mps 723 mmHg 23%
    07:00 +16°C° 0 mm 1 mps 723 mmHg 23%
    08:00 +19°C° 0 mm 1 mps 723 mmHg 21%
    09:00 +21°C° 0 mm 1 mps 724 mmHg 18%
    10:00 +23°C° 0 mm 1 mps 724 mmHg 16%
    11:00 +24°C° 0 mm 1 mps 724 mmHg 15%
    12:00 +25°C° 0 mm 1 mps 723 mmHg 15%
    13:00 +26°C° 0 mm 1 mps 722 mmHg 14%
    14:00 +26°C° 0 mm 1 mps 722 mmHg 14%
    15:00 +26°C° 0 mm 1 mps 722 mmHg 15%
    16:00 +26°C° 0 mm 1 mps 721 mmHg 15%
    17:00 +25°C° 0 mm 1 mps 721 mmHg 16%
    18:00 +23°C° 0 mm 1 mps 721 mmHg 17%
    19:00 +22°C° 0 mm 1 mps 722 mmHg 19%
    20:00 +22°C° 0 mm 1 mps 722 mmHg 19%
    21:00 +22°C° 0 mm 1 mps 721 mmHg 20%
    22:00 +21°C° 0 mm 1 mps 721 mmHg 20%
    23:00 +21°C° 0 mm 1 mps 721 mmHg 21%

    Pasado mañana, 17 Noviembre, Sábado

    Tiempo Temperatura Precipitaciones Viento Presión Humedad
    00:00 +20°C° 0 mm 1 mps 721 mmHg 22%
    01:00 +20°C° 0 mm 1 mps 720 mmHg 23%
    02:00 +19°C° 0 mm 1 mps 720 mmHg 24%
    03:00 +19°C° 0 mm 1 mps 720 mmHg 25%
    04:00 +18°C° 0 mm 1 mps 720 mmHg 27%
    05:00 +18°C° 0 mm 1 mps 720 mmHg 27%
    06:00 +18°C° 0 mm 1 mps 720 mmHg 27%
    07:00 +18°C° 0 mm 1 mps 720 mmHg 27%
    08:00 +20°C° 0 mm 1 mps 720 mmHg 25%
    09:00 +22°C° 0 mm 1 mps 721 mmHg 22%
    10:00 +25°C° 0 mm 1 mps 721 mmHg 19%
    11:00 +26°C° 0 mm 1 mps 720 mmHg 19%
    12:00 +27°C° 0 mm 2 mps 720 mmHg 18%
    13:00 +28°C° 0 mm 2 mps 719 mmHg 17%
    14:00 +28°C° 0 mm 2 mps 719 mmHg 17%
    15:00 +28°C° 0 mm 2 mps 718 mmHg 18%
    16:00 +28°C° 0 mm 2 mps 718 mmHg 18%
    17:00 +26°C° 0 mm 2 mps 718 mmHg 20%
    18:00 +25°C° 0 mm 2 mps 719 mmHg 23%
    19:00 +23°C° 0 mm 2 mps 719 mmHg 25%
    20:00 +22°C° 0 mm 3 mps 719 mmHg 28%
    21:00 +22°C° 0 mm 4 mps 719 mmHg 31%
    22:00 +21°C° 0 mm 4 mps 719 mmHg 34%
    23:00 +21°C° 0 mm 5 mps 719 mmHg 37%

    18 Noviembre, Domingo

    Tiempo Temperatura Precipitaciones Viento Presión Humedad
    00:00 +20°C° 0 mm 5 mps 719 mmHg 40%
    01:00 +20°C° 0 mm 5 mps 719 mmHg 42%
    02:00 +19°C° 0 mm 6 mps 719 mmHg 44%
    03:00 +17°C° 0 mm 6 mps 719 mmHg 45%
    04:00 +17°C° 0 mm 6 mps 719 mmHg 47%
    05:00 +17°C° 0 mm 6 mps 719 mmHg 46%
    06:00 +16°C° 0 mm 6 mps 720 mmHg 46%
    07:00 +16°C° 0 mm 6 mps 720 mmHg 46%
    08:00 +17°C° 0 mm 6 mps 720 mmHg 42%
    09:00 +20°C° 0 mm 6 mps 721 mmHg 37%
    10:00 +21°C° 0 mm 6 mps 721 mmHg 33%
    11:00 +23°C° 0 mm 6 mps 721 mmHg 30%
    12:00 +24°C° 0 mm 6 mps 720 mmHg 28%
    13:00 +26°C° 0 mm 6 mps 720 mmHg 26%
    14:00 +24°C° 0 mm 6 mps 719 mmHg 26%
    15:00 +24°C° 0 mm 6 mps 719 mmHg 26%
    16:00 +24°C° 0 mm 6 mps 719 mmHg 26%
    17:00 +22°C° 0 mm 5 mps 719 mmHg 28%
    18:00 +21°C° 0 mm 4 mps 720 mmHg 30%
    19:00 +20°C° 0 mm 4 mps 720 mmHg 32%
    20:00 +19°C° 0 mm 4 mps 720 mmHg 32%
    21:00 +19°C° 0 mm 4 mps 720 mmHg 32%
    22:00 +18°C° 0 mm 4 mps 721 mmHg 33%
    23:00 +18°C° 0 mm 4 mps 720 mmHg 33%

    19 Noviembre, Lunes

    Tiempo Temperatura Precipitaciones Viento Presión Humedad
    00:00 +17°C° 0 mm 4 mps 720 mmHg 34%
    01:00 +17°C° 0 mm 4 mps 720 mmHg 34%
    02:00 +15°C° 0 mm 4 mps 720 mmHg 34%
    03:00 +15°C° 0 mm 4 mps 720 mmHg 35%
    04:00 +14°C° 0 mm 4 mps 720 mmHg 35%
    05:00 +14°C° 0 mm 3 mps 721 mmHg 36%
    06:00 +14°C° 0 mm 3 mps 721 mmHg 36%
    07:00 +14°C° 0 mm 3 mps 722 mmHg 36%
    08:00 +16°C° 0 mm 3 mps 722 mmHg 33%
    09:00 +18°C° 0 mm 3 mps 723 mmHg 29%
    10:00 +20°C° 0 mm 3 mps 723 mmHg 26%
    11:00 +21°C° 0 mm 3 mps 723 mmHg 24%
    12:00 +22°C° 0 mm 3 mps 722 mmHg 22%
    13:00 +24°C° 0 mm 3 mps 722 mmHg 20%
    14:00 +24°C° 0 mm 3 mps 722 mmHg 20%
    15:00 +25°C° 0 mm 2 mps 722 mmHg 19%
    16:00 +25°C° 0 mm 2 mps 722 mmHg 19%
    17:00 +23°C° 0 mm 2 mps 722 mmHg 21%
    18:00 +21°C° 0 mm 2 mps 722 mmHg 23%
    19:00 +20°C° 0 mm 2 mps 722 mmHg 25%
    20:00 +19°C° 0 mm 2 mps 722 mmHg 26%
    21:00 +19°C° 0 mm 2 mps 722 mmHg 27%
    22:00 +18°C° 0 mm 3 mps 723 mmHg 28%
    23:00 +18°C° 0 mm 3 mps 722 mmHg 30%

    20 Noviembre, Martes

    Tiempo Temperatura Precipitaciones Viento Presión Humedad
    00:00 +17°C° 0 mm 3 mps 722 mmHg 31%
    01:00 +17°C° 0 mm 3 mps 722 mmHg 32%
    02:00 +16°C° 0 mm 2 mps 722 mmHg 33%
    03:00 +15°C° 0 mm 2 mps 722 mmHg 34%
    04:00 +15°C° 0 mm 2 mps 722 mmHg 35%
    05:00 +15°C° 0 mm 2 mps 722 mmHg 35%
    06:00 +15°C° 0 mm 1 mps 722 mmHg 35%
    07:00 +15°C° 0 mm 1 mps 723 mmHg 36%
    08:00 +18°C° 0 mm 1 mps 723 mmHg 31%
    09:00 +20°C° 0 mm 1 mps 724 mmHg 27%
    10:00 +22°C° 0 mm 1 mps 724 mmHg 23%
    11:00 +23°C° 0 mm 1 mps 723 mmHg 22%
    12:00 +24°C° 0 mm 1 mps 723 mmHg 20%
    13:00 +23°C° 0 mm 0 mps 722 mmHg 19%
    14:00 +25°C° 0 mm 1 mps 722 mmHg 19%
    15:00 +25°C° 0 mm 1 mps 721 mmHg 19%
    16:00 +25°C° 0 mm 1 mps 721 mmHg 19%
    17:00 +24°C° 0 mm 1 mps 721 mmHg 20%
    18:00 +23°C° 0 mm 1 mps 721 mmHg 22%
    19:00 +21°C° 0 mm 2 mps 722 mmHg 23%
    20:00 +21°C° 0 mm 2 mps 721 mmHg 23%
    21:00 +21°C° 0 mm 2 mps 721 mmHg 24%
    22:00 +20°C° 0 mm 2 mps 721 mmHg 25%
    23:00 +20°C° 0 mm 2 mps 721 mmHg 25%
    Mostrar más